Location: St. Louis
(38.6270°N, 90.1994°W)
Time: 20:40:57
(UTC-06:00)

Vanguard 1 - Pass Details

Date: 07 December 2021
Orbit: 652 x 3830 km, 34.2° (Epoch: 21 January)

Event Time Altitude Azimuth Distance (km) Brightness Sun altitude
Rises 19:28:20 0° 187° (S) 5,695 14.1 -32.2°
Reaches altitude 10° 19:32:57 10° 172° (S) 5,185 13.7 -33.1°
Enters shadow 19:41:11 22° 141° (SE) 4,983 13.3 -34.7°
